Time,TemperatureF,DewpointF,PressureIn,WindDirection,WindDirectionDegrees,WindSpeedMPH,WindSpeedGustMPH,Humidity,HourlyPrecipIn,Conditions,Clouds,dailyrainin,SoftwareType,DateUTC
2013-06-04 00:02:00,63.0,52.0,29.89,ESE,110,10.0,20.0,67,-99.99,,,-99.99,,2013-06-04 05:02:00,
2013-06-04 00:12:00,63.0,54.0,29.92,ESE,120,8.0,-999.0,72,-99.99,,,-99.99,,2013-06-04 05:12:00,
2013-06-04 00:22:00,63.0,54.0,29.92,ESE,120,8.0,-999.0,72,-99.99,,,-99.99,,2013-06-04 05:22:00,
2013-06-04 00:32:00,63.0,54.0,29.90,ESE,110,9.0,-999.0,72,-99.99,,,-99.99,,2013-06-04 05:32:00,
2013-06-04 00:42:00,63.0,54.0,29.90,ESE,110,9.0,-999.0,72,-99.99,,,-99.99,,2013-06-04 05:42:00,
2013-06-04 00:52:00,63.0,54.0,29.90,ESE,120,14.0,21.0,72,-99.99,,,-99.99,,2013-06-04 05:52:00,
2013-06-04 01:02:00,63.0,54.0,29.90,ESE,120,14.0,21.0,72,-99.99,,,-99.99,,2013-06-04 06:02:00,
2013-06-04 01:12:00,63.0,54.0,29.90,ESE,120,14.0,21.0,72,-99.99,,,-99.99,,2013-06-04 06:12:00,
2013-06-04 01:22:00,63.0,54.0,29.90,ESE,120,14.0,21.0,72,-99.99,,,-99.99,,2013-06-04 06:22:00,
2013-06-04 01:32:00,61.0,54.0,29.93,SSE,150,9.0,-999.0,77,-99.99,,,-99.99,,2013-06-04 06:32:00,
2013-06-04 01:42:00,61.0,54.0,29.93,SSE,150,9.0,-999.0,77,-99.99,,,-99.99,,2013-06-04 06:42:00,
2013-06-04 01:52:00,61.0,55.0,29.93,SE,130,14.0,18.0,82,-99.99,,,-99.99,,2013-06-04 06:52:00,
2013-06-04 02:02:00,61.0,55.0,29.93,SE,130,14.0,18.0,82,-99.99,,,-99.99,,2013-06-04 07:02:00,
2013-06-04 02:12:00,61.0,55.0,29.94,SE,130,13.0,18.0,82,-99.99,,,-99.99,,2013-06-04 07:12:00,
2013-06-04 02:22:00,61.0,55.0,29.94,SE,130,13.0,18.0,82,-99.99,,,-99.99,,2013-06-04 07:22:00,
2013-06-04 02:32:00,59.0,55.0,29.93,SSE,150,12.0,21.0,87,-99.99,,,-99.99,,2013-06-04 07:32:00,
2013-06-04 02:42:00,59.0,55.0,29.93,SSE,150,12.0,21.0,87,-99.99,,,-99.99,,2013-06-04 07:42:00,
2013-06-04 02:52:00,59.0,55.0,29.95,South,170,8.0,-999.0,87,-99.99,,,-99.99,,2013-06-04 07:52:00,
2013-06-04 03:02:00,59.0,55.0,29.95,South,170,8.0,-999.0,87,-99.99,,,-99.99,,2013-06-04 08:02:00,
2013-06-04 03:12:00,57.0,55.0,29.95,South,170,6.0,-999.0,93,-99.99,,,-99.99,,2013-06-04 08:12:00,
2013-06-04 03:22:00,57.0,55.0,29.95,South,170,6.0,-999.0,93,-99.99,,,-99.99,,2013-06-04 08:22:00,
2013-06-04 03:32:00,57.0,57.0,29.94,SE,130,8.0,-999.0,100,-99.99,,,-99.99,,2013-06-04 08:32:00,
2013-06-04 03:42:00,57.0,57.0,29.94,SE,130,8.0,-999.0,100,-99.99,,,-99.99,,2013-06-04 08:42:00,
2013-06-04 03:52:00,57.0,55.0,29.84,East,80,15.0,-999.0,93,-99.99,,,-99.99,,2013-06-04 08:52:00,
2013-06-04 04:02:00,57.0,55.0,29.84,East,80,15.0,-999.0,93,-99.99,,,-99.99,,2013-06-04 09:02:00,
2013-06-04 04:12:00,57.0,55.0,29.84,East,80,15.0,-999.0,93,-99.99,,,-99.99,,2013-06-04 09:12:00,
2013-06-04 04:22:00,57.0,55.0,29.84,East,80,15.0,-999.0,93,-99.99,,,-99.99,,2013-06-04 09:22:00,
2013-06-04 04:33:00,57.0,57.0,29.90,SSE,150,9.0,-999.0,100,-99.99,,,-99.99,,2013-06-04 09:33:00,
2013-06-04 04:43:00,57.0,57.0,29.90,SSE,150,9.0,-999.0,100,-99.99,,,-99.99,,2013-06-04 09:43:00,
2013-06-04 04:53:00,57.0,57.0,29.94,North,0,0.0,-999.0,100,-99.99,,,-99.99,,2013-06-04 09:53:00,
2013-06-04 05:02:00,57.0,57.0,29.94,North,0,0.0,-999.0,100,-99.99,,,-99.99,,2013-06-04 10:02:00,
2013-06-04 05:12:00,57.0,57.0,29.94,North,0,0.0,-999.0,100,-99.99,,,-99.99,,2013-06-04 10:12:00,
2013-06-04 05:23:00,57.0,57.0,29.94,North,0,0.0,-999.0,100,-99.99,,,-99.99,,2013-06-04 10:23:00,
2013-06-04 05:33:00,57.0,57.0,29.88,ESE,120,13.0,23.0,100,-99.99,,,-99.99,,2013-06-04 10:33:00,
2013-06-04 05:42:00,57.0,57.0,29.88,ESE,120,13.0,23.0,100,-99.99,,,-99.99,,2013-06-04 10:42:00,
2013-06-04 05:53:00,57.0,57.0,29.88,SE,130,15.0,23.0,100,-99.99,,,-99.99,,2013-06-04 10:53:00,
2013-06-04 06:02:00,57.0,57.0,29.88,SE,130,15.0,23.0,100,-99.99,,,-99.99,,2013-06-04 11:02:00,
2013-06-04 06:12:00,57.0,55.0,29.88,North,0,0.0,-999.0,93,-99.99,,,-99.99,,2013-06-04 11:12:00,
2013-06-04 06:22:00,57.0,55.0,29.88,North,0,0.0,-999.0,93,-99.99,,,-99.99,,2013-06-04 11:22:00,
2013-06-04 06:32:00,57.0,57.0,29.91,North,0,0.0,-999.0,100,-99.99,,,-99.99,,2013-06-04 11:32:00,
2013-06-04 06:42:00,57.0,57.0,29.91,North,0,0.0,-999.0,100,-99.99,,,-99.99,,2013-06-04 11:42:00,
2013-06-04 06:52:00,57.0,57.0,29.90,ESE,120,7.0,-999.0,100,-99.99,,,-99.99,,2013-06-04 11:52:00,
2013-06-04 07:02:00,57.0,57.0,29.90,ESE,120,7.0,-999.0,100,-99.99,,,-99.99,,2013-06-04 12:02:00,
2013-06-04 07:12:00,57.0,55.0,29.91,ESE,120,5.0,-999.0,93,-99.99,,,-99.99,,2013-06-04 12:12:00,
2013-06-04 07:22:00,57.0,55.0,29.91,ESE,120,5.0,-999.0,93,-99.99,,,-99.99,,2013-06-04 12:22:00,
2013-06-04 07:32:00,55.0,55.0,29.93,North,0,0.0,-999.0,100,-99.99,,,-99.99,,2013-06-04 12:32:00,
2013-06-04 07:42:00,55.0,55.0,29.93,North,0,0.0,-999.0,100,-99.99,,,-99.99,,2013-06-04 12:42:00,
2013-06-04 07:52:00,55.0,55.0,29.93,North,0,0.0,-999.0,100,-99.99,,,-99.99,,2013-06-04 12:52:00,
2013-06-04 08:02:00,55.0,55.0,29.93,North,0,0.0,-999.0,100,-99.99,,,-99.99,,2013-06-04 13:02:00,
2013-06-04 08:12:00,55.0,55.0,29.92,North,0,0.0,-999.0,100,-99.99,,,-99.99,,2013-06-04 13:12:00,
2013-06-04 08:22:00,55.0,55.0,29.92,North,0,0.0,-999.0,100,-99.99,,,-99.99,,2013-06-04 13:22:00,
2013-06-04 08:32:00,55.0,55.0,29.93,North,0,0.0,-999.0,100,-99.99,,,-99.99,,2013-06-04 13:32:00,
2013-06-04 08:42:00,55.0,55.0,29.93,North,0,0.0,-999.0,100,-99.99,,,-99.99,,2013-06-04 13:42:00,
2013-06-04 08:52:00,55.0,55.0,29.94,North,0,0.0,-999.0,100,-99.99,,,-99.99,,2013-06-04 13:52:00,
2013-06-04 09:02:00,55.0,55.0,29.94,North,0,0.0,-999.0,100,-99.99,,,-99.99,,2013-06-04 14:02:00,
2013-06-04 09:12:00,55.0,55.0,29.93,North,0,0.0,-999.0,100,-99.99,,,-99.99,,2013-06-04 14:12:00,
2013-06-04 09:22:00,55.0,55.0,29.93,North,0,0.0,-999.0,100,-99.99,,,-99.99,,2013-06-04 14:22:00,
2013-06-04 09:32:00,55.0,55.0,29.96,North,0,0.0,-999.0,100,-99.99,,,-99.99,,2013-06-04 14:32:00,
2013-06-04 09:42:00,55.0,55.0,29.96,North,0,0.0,-999.0,100,-99.99,,,-99.99,,2013-06-04 14:42:00,
2013-06-04 09:52:00,55.0,55.0,29.94,ESE,110,5.0,-999.0,100,-99.99,,,-99.99,,2013-06-04 14:52:00,
2013-06-04 10:02:00,55.0,55.0,29.94,ESE,110,5.0,-999.0,100,-99.99,,,-99.99,,2013-06-04 15:02:00,
2013-06-04 10:12:00,55.0,55.0,29.95,North,0,0.0,-999.0,100,-99.99,,,-99.99,,2013-06-04 15:12:00,
2013-06-04 10:22:00,55.0,55.0,29.95,North,0,0.0,-999.0,100,-99.99,,,-99.99,,2013-06-04 15:22:00,
2013-06-04 10:33:00,57.0,57.0,29.96,North,0,0.0,-999.0,100,-99.99,,,-99.99,,2013-06-04 15:33:00,
2013-06-04 10:42:00,57.0,57.0,29.96,North,0,0.0,-999.0,100,-99.99,,,-99.99,,2013-06-04 15:42:00,
2013-06-04 10:53:00,57.0,57.0,29.96,ESE,120,5.0,-999.0,100,-99.99,,,-99.99,,2013-06-04 15:53:00,
2013-06-04 11:03:00,57.0,57.0,29.96,ESE,120,5.0,-999.0,100,-99.99,,,-99.99,,2013-06-04 16:03:00,
2013-06-04 11:12:00,57.0,57.0,29.97,ESE,120,6.0,-999.0,100,-99.99,,,-99.99,,2013-06-04 16:12:00,
2013-06-04 11:22:00,57.0,57.0,29.97,ESE,120,6.0,-999.0,100,-99.99,,,-99.99,,2013-06-04 16:22:00,
2013-06-04 11:33:00,59.0,59.0,29.96,North,0,0.0,-999.0,100,-99.99,,,-99.99,,2013-06-04 16:33:00,
2013-06-04 11:42:00,59.0,59.0,29.96,North,0,0.0,-999.0,100,-99.99,,,-99.99,,2013-06-04 16:42:00,
2013-06-04 11:52:00,59.0,59.0,29.97,SE,130,8.0,-999.0,100,-99.99,,,-99.99,,2013-06-04 16:52:00,
2013-06-04 12:03:00,59.0,59.0,29.97,SE,130,8.0,-999.0,100,-99.99,,,-99.99,,2013-06-04 17:03:00,
2013-06-04 12:12:00,59.0,59.0,29.97,ESE,120,6.0,-999.0,100,-99.99,,,-99.99,,2013-06-04 17:12:00,
2013-06-04 12:23:00,59.0,59.0,29.97,ESE,120,6.0,-999.0,100,-99.99,,,-99.99,,2013-06-04 17:23:00,
2013-06-04 12:32:00,61.0,61.0,29.97,North,0,0.0,-999.0,100,-99.99,,,-99.99,,2013-06-04 17:32:00,
2013-06-04 12:42:00,61.0,61.0,29.97,North,0,0.0,-999.0,100,-99.99,,,-99.99,,2013-06-04 17:42:00,
2013-06-04 12:52:00,61.0,61.0,29.97,North,0,0.0,-999.0,100,-99.99,,,-99.99,,2013-06-04 17:52:00,
2013-06-04 13:02:00,61.0,61.0,29.97,North,0,0.0,-999.0,100,-99.99,,,-99.99,,2013-06-04 18:02:00,
2013-06-04 13:12:00,61.0,61.0,29.97,North,0,0.0,-999.0,100,-99.99,,,-99.99,,2013-06-04 18:12:00,
2013-06-04 13:22:00,61.0,61.0,29.97,North,0,0.0,-999.0,100,-99.99,,,-99.99,,2013-06-04 18:22:00,
2013-06-04 13:32:00,63.0,63.0,29.97,North,0,0.0,-999.0,100,-99.99,,,-99.99,,2013-06-04 18:32:00,
2013-06-04 13:42:00,63.0,63.0,29.97,North,0,0.0,-999.0,100,-99.99,,,-99.99,,2013-06-04 18:42:00,
2013-06-04 13:52:00,63.0,63.0,29.97,North,0,0.0,-999.0,100,-99.99,,,-99.99,,2013-06-04 18:52:00,
2013-06-04 14:02:00,63.0,63.0,29.97,North,0,0.0,-999.0,100,-99.99,,,-99.99,,2013-06-04 19:02:00,
2013-06-04 14:12:00,63.0,63.0,29.97,North,0,0.0,-999.0,100,-99.99,,,-99.99,,2013-06-04 19:12:00,
2013-06-04 14:22:00,63.0,63.0,29.97,North,0,0.0,-999.0,100,-99.99,,,-99.99,,2013-06-04 19:22:00,
2013-06-04 14:32:00,64.0,63.0,29.97,North,0,0.0,-999.0,93,-99.99,,,-99.99,,2013-06-04 19:32:00,
2013-06-04 14:42:00,64.0,63.0,29.97,North,0,0.0,-999.0,93,-99.99,,,-99.99,,2013-06-04 19:42:00,
2013-06-04 14:52:00,64.0,63.0,29.97,North,0,0.0,-999.0,93,-99.99,,,-99.99,,2013-06-04 19:52:00,
2013-06-04 15:03:00,64.0,63.0,29.97,North,0,0.0,-999.0,93,-99.99,,,-99.99,,2013-06-04 20:03:00,
2013-06-04 15:12:00,64.0,63.0,29.97,North,0,0.0,-999.0,93,-99.99,,,-99.99,,2013-06-04 20:12:00,
2013-06-04 15:22:00,64.0,63.0,29.97,North,0,0.0,-999.0,93,-99.99,,,-99.99,,2013-06-04 20:22:00,
2013-06-04 15:32:00,64.0,63.0,29.97,North,0,0.0,-999.0,93,-99.99,,,-99.99,,2013-06-04 20:32:00,
2013-06-04 15:42:00,64.0,63.0,29.97,North,0,0.0,-999.0,93,-99.99,,,-99.99,,2013-06-04 20:42:00,
2013-06-04 15:52:00,64.0,63.0,29.97,North,0,0.0,-999.0,93,-99.99,,,-99.99,,2013-06-04 20:52:00,
2013-06-04 16:02:00,64.0,63.0,29.97,North,0,0.0,-999.0,93,-99.99,,,-99.99,,2013-06-04 21:02:00,
2013-06-04 16:12:00,64.0,63.0,29.97,North,0,0.0,-999.0,93,-99.99,,,-99.99,,2013-06-04 21:12:00,
2013-06-04 16:22:00,64.0,63.0,29.97,North,0,0.0,-999.0,93,-99.99,,,-99.99,,2013-06-04 21:22:00,
2013-06-04 16:33:00,66.0,64.0,29.98,North,0,0.0,-999.0,93,-99.99,,,-99.99,,2013-06-04 21:33:00,
2013-06-04 16:42:00,66.0,64.0,29.98,North,0,0.0,-999.0,93,-99.99,,,-99.99,,2013-06-04 21:42:00,
2013-06-04 16:52:00,66.0,63.0,29.97,North,0,0.0,-999.0,88,-99.99,,,-99.99,,2013-06-04 21:52:00,
2013-06-04 17:02:00,66.0,63.0,29.97,North,0,0.0,-999.0,88,-99.99,,,-99.99,,2013-06-04 22:02:00,
2013-06-04 17:12:00,66.0,63.0,29.98,North,0,0.0,-999.0,88,-99.99,,,-99.99,,2013-06-04 22:12:00,
2013-06-04 17:22:00,66.0,63.0,29.98,North,0,0.0,-999.0,88,-99.99,,,-99.99,,2013-06-04 22:22:00,
2013-06-04 17:32:00,66.0,64.0,29.97,ESE,120,7.0,-999.0,93,-99.99,,,-99.99,,2013-06-04 22:32:00,
2013-06-04 17:42:00,66.0,64.0,29.97,ESE,120,7.0,-999.0,93,-99.99,,,-99.99,,2013-06-04 22:42:00,
2013-06-04 17:52:00,66.0,64.0,29.97,North,0,0.0,-999.0,93,-99.99,,,-99.99,,2013-06-04 22:52:00,
2013-06-04 18:02:00,66.0,64.0,29.97,North,0,0.0,-999.0,93,-99.99,,,-99.99,,2013-06-04 23:02:00,
2013-06-04 18:12:00,66.0,63.0,29.97,North,0,0.0,-999.0,88,-99.99,,,-99.99,,2013-06-04 23:12:00,
2013-06-04 18:22:00,66.0,63.0,29.97,North,0,0.0,-999.0,88,-99.99,,,-99.99,,2013-06-04 23:22:00,
2013-06-04 18:32:00,66.0,63.0,29.97,North,0,0.0,-999.0,88,-99.99,,,-99.99,,2013-06-04 23:32:00,
2013-06-04 18:42:00,66.0,63.0,29.97,North,0,0.0,-999.0,88,-99.99,,,-99.99,,2013-06-04 23:42:00,
2013-06-04 18:52:00,66.0,64.0,29.97,East,90,5.0,-999.0,93,-99.99,,,-99.99,,2013-06-04 23:52:00,
2013-06-04 19:02:00,66.0,64.0,29.97,East,90,5.0,-999.0,93,-99.99,,,-99.99,,2013-06-05 00:02:00,
2013-06-04 19:12:00,66.0,64.0,29.97,North,0,0.0,-999.0,93,-99.99,,,-99.99,,2013-06-05 00:12:00,
2013-06-04 19:22:00,66.0,64.0,29.97,North,0,0.0,-999.0,93,-99.99,,,-99.99,,2013-06-05 00:22:00,
2013-06-04 19:32:00,66.0,64.0,29.97,ESE,120,7.0,-999.0,93,-99.99,,,-99.99,,2013-06-05 00:32:00,
2013-06-04 19:42:00,66.0,64.0,29.97,ESE,120,7.0,-999.0,93,-99.99,,,-99.99,,2013-06-05 00:42:00,
2013-06-04 19:52:00,66.0,64.0,29.98,North,0,0.0,-999.0,93,-99.99,,,-99.99,,2013-06-05 00:52:00,
2013-06-04 20:02:00,66.0,64.0,29.98,North,0,0.0,-999.0,93,-99.99,,,-99.99,,2013-06-05 01:02:00,
2013-06-04 20:12:00,66.0,64.0,29.98,North,0,0.0,-999.0,93,-99.99,,,-99.99,,2013-06-05 01:12:00,
2013-06-04 20:22:00,66.0,64.0,29.98,North,0,0.0,-999.0,93,-99.99,,,-99.99,,2013-06-05 01:22:00,
2013-06-04 20:32:00,66.0,64.0,29.99,North,0,0.0,-999.0,93,-99.99,,,-99.99,,2013-06-05 01:32:00,
2013-06-04 20:42:00,66.0,64.0,29.99,North,0,0.0,-999.0,93,-99.99,,,-99.99,,2013-06-05 01:42:00,
2013-06-04 20:52:00,64.0,64.0,30.00,ESE,120,6.0,-999.0,100,-99.99,,,-99.99,,2013-06-05 01:52:00,
2013-06-04 21:02:00,64.0,64.0,30.00,ESE,120,6.0,-999.0,100,-99.99,,,-99.99,,2013-06-05 02:02:00,
2013-06-04 21:12:00,64.0,63.0,30.00,ESE,120,5.0,-999.0,93,-99.99,,,-99.99,,2013-06-05 02:12:00,
2013-06-04 21:22:00,64.0,63.0,30.00,ESE,120,5.0,-999.0,93,-99.99,,,-99.99,,2013-06-05 02:22:00,
2013-06-04 21:32:00,63.0,63.0,30.01,SE,130,6.0,-999.0,100,-99.99,,,-99.99,,2013-06-05 02:32:00,
2013-06-04 21:42:00,63.0,63.0,30.01,SE,130,6.0,-999.0,100,-99.99,,,-99.99,,2013-06-05 02:42:00,
2013-06-04 21:52:00,63.0,63.0,30.02,North,0,0.0,-999.0,100,-99.99,,,-99.99,,2013-06-05 02:52:00,
2013-06-04 22:02:00,63.0,63.0,30.02,North,0,0.0,-999.0,100,-99.99,,,-99.99,,2013-06-05 03:02:00,
2013-06-04 22:12:00,63.0,63.0,30.02,North,0,0.0,-999.0,100,-99.99,,,-99.99,,2013-06-05 03:12:00,
2013-06-04 22:22:00,63.0,63.0,30.02,North,0,0.0,-999.0,100,-99.99,,,-99.99,,2013-06-05 03:22:00,
2013-06-04 22:33:00,63.0,63.0,30.02,North,0,0.0,-999.0,100,-99.99,,,-99.99,,2013-06-05 03:33:00,
2013-06-04 22:43:00,63.0,63.0,30.02,North,0,0.0,-999.0,100,-99.99,,,-99.99,,2013-06-05 03:43:00,
2013-06-04 22:53:00,61.0,61.0,30.03,North,0,0.0,-999.0,100,-99.99,,,-99.99,,2013-06-05 03:53:00,
2013-06-04 23:02:00,61.0,61.0,30.03,North,0,0.0,-999.0,100,-99.99,,,-99.99,,2013-06-05 04:02:00,
2013-06-04 23:13:00,61.0,61.0,30.03,North,0,0.0,-999.0,100,-99.99,,,-99.99,,2013-06-05 04:13:00,
2013-06-04 23:23:00,61.0,61.0,30.03,North,0,0.0,-999.0,100,-99.99,,,-99.99,,2013-06-05 04:23:00,
2013-06-04 23:33:00,61.0,61.0,30.05,North,0,0.0,-999.0,100,-99.99,,,-99.99,,2013-06-05 04:33:00,
2013-06-04 23:42:00,61.0,61.0,30.05,North,0,0.0,-999.0,100,-99.99,,,-99.99,,2013-06-05 04:42:00,
2013-06-04 23:53:00,63.0,55.0,30.05,North,0,0.0,-999.0,77,-99.99,,,-99.99,,2013-06-05 04:53:00,